Temperature
21 21 20 20 19 18 17 16 16 15 14 14 13 13 13 13 12 12 12 12 12 11 11 11 10 10 10 10 10 10 9 9 9 9 9 9 9 9 9 9 9 9 9
21 21 21 20 19 18 17 16 16 16 15 15 15 15 14 13 13 12 12 12 12 12 11 11 11 10 10 10 10 10 9 9 9 9 9 9 9 9 9 9 9 9 9
21 21 21 20 19 18 17 17 16 16 16 15 14 13 13 12 12 12 12 12 12 12 11 11 11 10 10 10 10 10 9 9 9 9 9 8 8 9 9 9 9 9 9
21 21 21 20 19 19 18 17 16 16 16 15 14 14 13 13 14 14 13 13 12 12 11 11 11 10 10 10 10 10 9 9 9 9 9 9 9 8 8 8 8 8 8
21 21 21 20 20 19 18 17 16 16 15 15 15 14 14 14 14 13 13 13 12 12 11 11 11 10 10 10 10 10 9 9 9 9 9 9 8 8 8 8 8 8 8
21 21 21 20 20 19 18 17 16 16 15 15 14 14 14 14 13 13 13 12 12 12 11 11 11 11 10 10 10 10 9 9 9 9 9 9 8 8 8 8 7 7 7
20 20 20 20 19 19 18 18 17 16 15 14 14 14 14 13 13 13 13 13 12 12 12 12 11 11 10 10 10 10 9 9 9 9 9 8 8 8 8 7 7 7 7
20 20 20 19 19 19 18 18 17 16 15 15 14 14 13 13 13 13 13 13 13 13 13 12 11 11 10 10 10 9 9 9 9 9 8 8 8 8 7 7 7 6 6
19 19 19 19 19 18 18 18 17 16 16 15 14 13 13 13 12 12 12 12 12 12 12 12 11 11 10 10 10 9 9 9 9 9 8 8 8 7 7 7 6 6 5
18 18 18 18 18 18 18 17 17 16 16 15 14 13 13 12 12 12 12 12 12 12 12 11 11 11 10 10 9 9 9 9 9 8 8 8 8 7 7 6 6 5 5
18 17 17 17 17 17 17 17 16 16 15 15 14 13 13 12 12 12 11 11 11 11 11 11 11 10 10 10 9 9 9 9 9 8 8 8 7 7 6 6 6 5 4
17 17 16 16 16 16 16 16 16 15 15 14 14 13 12 12 12 11 11 11 11 11 11 11 10 10 10 9 9 9 9 9 8 8 8 7 7 7 6 6 5 5 4
16 16 15 15 15 15 16 15 15 15 15 14 14 13 12 12 12 11 11 11 11 11 11 10 10 10 10 9 9 9 9 8 8 8 7 7 7 6 6 5 5 4 3
15 15 14 14 15 15 15 15 14 15 14 14 13 13 12 12 12 11 11 11 11 11 10 10 10 10 9 9 9 9 8 8 8 7 7 7 6 6 5 4 4 3 3
14 14 13 13 14 14 14 14 14 14 14 14 13 13 12 12 12 11 11 11 10 10 10 10 9 9 9 9 9 8 8 8 7 7 7 6 6 5 5 4 3 3 2
14 13 13 13 13 14 14 14 14 14 14 13 13 13 12 12 11 11 11 10 10 10 10 9 9 9 9 9 8 8 8 7 7 7 6 6 5 5 4 4 3 2 1
13 13 13 13 14 14 14 14 14 14 13 13 13 12 12 12 11 11 10 10 10 9 9 9 9 9 8 8 8 8 7 7 7 6 6 5 5 4 4 3 2 1 1
13 13 13 13 13 14 14 14 14 14 13 13 13 13 12 11 11 11 10 10 9 9 9 9 9 8 8 8 7 7 7 6 6 6 5 5 4 4 3 2 2 1 -0
13 13 13 13 13 13 14 14 13 13 13 13 13 12 12 11 11 10 10 10 9 9 9 9 8 8 8 7 7 7 6 6 5 5 4 4 3 3 2 1 1 0 -1
13 13 13 13 13 13 13 13 13 13 13 13 13 12 12 11 11 10 10 9 9 9 8 8 8 8 7 7 7 6 6 6 5 4 4 3 2 2 1 1 0 -1 -1
12 13 13 13 13 13 13 13 13 13 13 13 12 12 12 11 11 10 10 9 9 8 8 8 7 7 7 6 6 6 5 5 4 4 3 2 2 1 0 -0 -1 -2 -3
12 12 12 12 12 13 13 13 13 13 13 12 12 12 11 11 10 10 9 9 8 8 8 7 7 7 6 6 5 5 5 4 4 3 2 2 1 0 -0 -1 -2 -3 -3
11 12 12 12 12 12 13 13 13 13 12 12 12 11 11 10 10 10 9 9 8 8 8 7 7 6 6 5 5 4 4 3 3 2 2 1 0 -0 -1 -2 -3 -3 -4
10 11 11 11 11 11 12 13 13 12 12 12 11 11 11 10 9 9 9 8 8 8 7 7 6 6 5 5 4 4 3 3 2 2 1 0 -1 -1 -2 -3 -3 -4 -4
10 10 10 11 11 11 11 12 12 12 11 11 11 10 10 10 9 8 8 8 8 8 8 7 7 6 6 5 4 4 3 2 2 1 0 -0 -1 -2 -3 -3 -4 -4 -5
9 9 10 10 10 10 11 11 11 11 11 11 10 10 9 9 8 8 7 7 7 6 6 6 6 5 5 4 4 3 2 2 1 0 -0 -1 -2 -2 -3 -4 -4 -5 -5
Wind_Speed
16 15 16 16 16 16 18 19 18 17 15 13 12 12 10 9 8 7 12 15 15 15 11 6 7 6 6 6 6 4 4 3 2 1 1 2 3 3 3 3 3 4 6
15 16 16 16 17 18 19 20 20 19 17 14 12 10 9 7 7 6 9 14 14 15 12 8 7 7 6 7 6 5 4 3 4 3 1 1 2 3 3 3 3 3 5
15 15 15 16 16 17 19 19 21 19 18 15 11 9 8 7 7 9 9 10 13 14 13 10 8 7 7 7 6 6 6 4 4 4 4 2 3 2 2 4 4 4 3
14 14 15 16 17 16 17 18 20 19 18 17 15 16 14 12 11 11 9 9 11 12 13 12 10 8 7 7 7 7 5 6 4 3 3 3 3 2 2 3 4 5 5
14 14 14 16 16 16 16 17 18 19 18 18 17 17 12 10 8 9 11 11 10 11 12 12 10 9 7 8 8 7 6 5 5 4 3 2 2 2 3 3 3 3 4
15 14 13 13 14 15 15 16 17 18 19 20 18 18 16 13 13 12 13 12 9 9 12 11 10 9 8 8 8 7 8 6 6 4 4 4 3 4 4 4 4 4 4
14 13 13 13 14 16 16 17 18 17 18 20 19 19 17 16 16 14 14 12 10 9 13 11 10 9 8 8 8 8 7 7 6 6 4 4 4 3 3 3 3 3 3
13 13 13 13 13 16 17 18 18 17 18 19 19 18 16 13 11 13 11 13 11 11 12 12 11 10 9 9 8 7 7 7 7 6 6 4 4 3 3 3 2 3 3
12 12 12 12 12 14 16 17 17 16 17 18 17 16 16 14 12 11 11 10 9 10 12 12 11 10 9 9 8 7 7 7 7 6 6 4 3 3 3 2 3 3 3
10 10 11 12 12 13 13 14 15 15 14 16 15 14 15 14 12 11 12 11 11 11 12 12 11 10 10 9 8 7 7 7 6 5 5 4 3 3 3 3 3 3 4
10 10 9 10 11 11 12 13 14 13 13 15 14 13 14 13 12 11 11 11 11 11 12 12 11 11 10 9 9 8 8 7 6 5 6 5 4 3 3 2 2 2 2
9 9 10 10 10 11 11 12 13 13 13 13 13 13 13 13 12 11 11 11 11 11 11 11 11 10 10 10 10 9 8 8 7 6 6 5 3 3 3 2 3 3 3
9 9 9 10 10 10 10 11 12 12 12 13 13 13 13 13 13 12 11 11 11 11 11 11 11 10 9 9 9 8 8 7 6 6 6 5 4 4 2 2 2 2 2
9 9 9 9 9 9 9 10 11 12 12 13 13 14 13 13 12 11 11 11 11 11 11 10 10 9 9 8 8 7 7 6 5 5 5 5 5 4 3 2 2 1 1
9 9 9 8 9 9 10 9 10 12 12 13 13 13 12 12 11 11 11 11 11 11 10 10 9 9 7 7 8 7 7 7 6 5 5 5 5 3 3 2 2 1 1
8 9 9 10 10 11 11 10 10 11 12 13 12 12 12 12 12 12 11 11 11 10 11 10 10 9 7 10 11 9 7 7 7 6 5 5 4 3 2 1 1 1 1
6 8 8 9 10 10 11 11 11 11 12 12 12 13 13 13 12 12 12 12 11 10 10 10 10 9 9 12 11 10 7 7 6 6 5 4 3 3 2 1 1 1 2
4 6 7 8 7 7 9 9 11 12 12 12 13 13 13 13 13 13 12 11 10 10 10 10 10 9 9 12 12 11 8 7 6 6 5 5 3 3 3 2 2 1 2
3 5 6 8 8 9 10 11 11 11 12 13 13 14 14 14 14 14 12 11 10 9 9 10 10 10 9 12 12 11 7 6 6 6 5 5 4 3 4 3 2 1 2
1 3 6 8 9 9 11 12 12 13 13 13 13 14 14 14 14 13 12 10 10 10 10 9 9 10 9 11 12 11 6 7 6 5 5 6 5 4 4 3 2 0 2
1 3 6 8 9 10 11 12 12 13 12 13 13 13 13 14 14 12 11 12 11 11 10 10 9 8 10 11 12 11 6 6 6 5 4 3 5 5 4 3 1 1 2
1 2 4 6 8 10 12 11 12 11 13 14 14 14 14 13 13 14 12 12 13 13 11 10 9 7 8 10 11 11 9 9 6 5 4 4 6 5 4 3 3 4 5
2 3 4 6 7 10 11 12 11 12 15 15 14 14 14 12 13 14 14 13 11 10 10 9 9 7 6 7 12 12 11 11 7 5 7 7 6 5 3 3 4 5 3
2 2 3 6 7 9 10 10 11 13 16 16 15 14 14 13 12 10 11 11 11 10 10 10 9 8 7 6 6 6 7 9 7 6 7 7 6 4 3 3 3 2 1
3 3 5 6 7 8 9 11 13 14 15 16 15 14 13 13 12 9 7 9 7 10 12 10 10 10 8 8 12 9 6 6 6 6 4 3 2 2 2 2 2 2 2
3 3 4 5 7 9 10 11 13 15 17 16 15 13 12 12 12 12 11 13 11 14 14 13 12 9 12 16 15 13 12 11 11 7 4 3 2 2 1 1 1 1 1
Wind_Direction
198 194 186 179 175 172 171 172 175 177 172 175 179 180 182 177 175 171 172 174 177 174 170 167 167 162 164 171 172 164 159 169 154 110 300 281 235 199 197 192 183 192 198
197 193 186 179 176 175 174 174 177 179 179 181 182 180 174 175 174 169 175 178 178 176 177 169 168 166 168 175 180 161 156 174 161 156 155 297 308 283 228 202 203 209 206
202 193 187 181 178 178 178 179 180 181 181 175 172 169 166 169 178 183 185 183 180 178 177 175 169 171 171 180 184 170 167 180 198 189 168 176 230 276 261 229 217 219 219
210 197 188 182 181 181 179 179 179 179 181 176 178 178 182 186 189 184 182 181 182 181 179 178 177 176 175 178 183 177 175 171 189 211 211 197 176 170 270 278 243 230 229
211 201 192 184 181 177 176 178 177 179 179 180 182 183 188 187 176 173 177 184 188 187 182 182 181 179 179 180 180 177 181 179 181 184 187 215 235 205 194 251 270 262 246
208 203 192 181 178 175 173 175 177 180 179 182 184 187 188 183 177 179 182 186 187 190 187 185 183 183 180 182 182 182 183 186 187 188 181 174 186 209 204 229 250 255 258
201 196 189 181 176 173 174 176 179 181 181 183 187 190 191 188 186 184 184 183 185 190 191 186 186 185 181 179 178 181 184 184 188 191 195 196 204 194 192 213 247 261 270
197 193 187 182 175 174 175 178 181 182 182 184 188 189 188 190 192 185 182 184 187 188 185 184 184 181 179 178 177 180 183 184 190 194 192 200 209 200 194 194 211 269 276
190 185 180 178 173 173 177 179 181 182 182 184 184 186 186 187 189 184 178 181 180 179 179 181 181 180 177 177 175 179 182 181 189 194 195 197 200 196 203 197 187 200 248
187 181 176 176 174 174 174 176 179 182 180 180 182 185 185 185 184 181 180 175 173 170 174 178 179 177 176 175 173 174 177 179 186 182 185 193 196 195 197 203 208 200 210
184 178 170 168 165 163 168 172 176 174 176 178 177 177 179 180 179 180 178 172 169 167 171 174 175 176 176 174 172 174 174 179 183 180 186 200 190 185 194 196 204 214 211
175 168 160 154 155 160 165 168 171 172 174 174 171 173 172 172 176 177 173 167 166 166 166 167 170 173 172 171 172 176 174 179 186 185 182 191 175 182 187 192 212 225 226
161 154 152 157 158 160 163 165 168 168 167 165 166 168 169 171 174 173 167 163 160 158 158 161 165 165 166 166 168 169 171 176 177 171 175 178 169 186 183 191 212 232 253
152 150 154 158 159 158 159 162 163 162 161 162 165 168 171 170 168 164 160 158 155 153 153 155 156 156 156 158 156 155 158 161 159 158 163 164 167 175 176 191 211 226 261
156 157 160 160 158 157 157 158 159 159 159 159 162 164 160 157 155 154 153 149 147 147 145 144 143 144 147 151 150 152 154 154 151 148 149 149 146 151 161 170 191 186 223
164 164 164 160 161 160 158 156 156 157 157 157 157 153 151 151 152 150 146 142 140 141 142 144 143 143 145 147 148 150 149 148 148 147 141 141 137 139 153 201 211 178 206
164 168 168 163 164 164 158 159 156 150 151 152 150 149 148 148 148 146 144 145 144 142 142 141 140 140 143 146 146 143 141 137 138 137 135 128 124 120 116 123 46 2 347
178 175 168 160 156 154 151 149 148 150 150 150 151 150 149 147 146 146 147 145 143 144 142 140 138 136 141 145 145 139 128 124 124 126 129 128 122 116 111 100 78 43 0
206 184 167 157 153 155 153 148 150 151 152 155 157 155 152 150 149 150 149 145 142 140 140 138 137 136 140 143 143 137 127 123 121 119 117 121 123 111 97 97 89 22 338
199 165 151 152 155 158 154 153 156 158 161 160 157 154 152 151 150 149 144 141 140 137 132 128 131 134 137 141 140 133 128 125 121 113 111 110 111 108 103 107 108 3 308
209 154 151 158 163 160 158 160 162 166 160 150 148 149 150 148 146 142 141 139 135 131 128 124 121 124 130 136 136 132 129 134 128 124 118 114 112 105 98 88 98 337 360
201 168 162 164 164 161 162 165 169 160 148 146 146 147 147 145 143 140 138 137 137 134 132 126 118 114 124 131 135 130 123 125 125 129 127 120 114 102 88 71 33 25 30
225 193 180 171 171 169 167 169 165 153 148 145 147 146 143 141 143 143 143 142 142 141 141 137 134 129 123 129 132 129 124 120 117 122 123 117 109 95 76 55 46 44 46
263 221 182 177 179 173 169 166 158 154 150 148 147 146 144 141 138 139 144 147 149 146 145 145 142 137 134 135 136 132 124 119 114 113 116 111 103 92 79 65 54 48 35
255 221 205 196 185 173 165 158 156 154 150 148 147 146 143 140 134 126 126 137 144 153 152 154 151 150 152 155 149 142 135 134 130 120 104 93 97 86 73 64 57 41 19
244 227 226 208 183 169 162 160 159 157 153 151 150 149 145 139 134 124 102 85 108 120 124 133 136 137 140 141 139 135 133 133 133 119 120 124 121 118 106 77 37 22 6
Height
1431 1436 1441 1445 1451 1455 1459 1463 1468 1473 1478 1482 1486 1490 1495 1499 1503 1506 1509 1512 1515 1518 1521 1524 1526 1528 1530 1532 1534 1536 1537 1539 1540 1540 1540 1541 1541 1541 1540 1540 1540 1539 1539
1424 1429 1434 1438 1443 1448 1453 1457 1461 1466 1471 1475 1480 1485 1490 1494 1499 1503 1506 1509 1512 1515 1518 1520 1523 1525 1527 1530 1532 1533 1535 1536 1537 1538 1538 1538 1539 1538 1538 1538 1538 1537 1537
1416 1421 1426 1430 1436 1441 1446 1450 1455 1459 1465 1470 1476 1482 1487 1491 1495 1497 1501 1504 1507 1511 1514 1517 1519 1522 1524 1526 1528 1530 1531 1533 1535 1536 1537 1537 1536 1536 1536 1535 1535 1535 1534
1409 1413 1418 1423 1428 1434 1439 1444 1449 1453 1459 1464 1469 1473 1477 1481 1484 1490 1494 1499 1503 1506 1510 1513 1515 1518 1520 1523 1525 1527 1528 1530 1531 1533 1533 1535 1534 1534 1532 1532 1532 1532 1531
1402 1406 1410 1415 1421 1427 1433 1438 1443 1448 1453 1458 1462 1466 1471 1476 1481 1486 1490 1494 1498 1502 1505 1508 1511 1514 1516 1519 1521 1523 1525 1526 1528 1529 1530 1531 1531 1531 1530 1528 1528 1528 1527
1394 1399 1404 1409 1414 1420 1425 1431 1436 1441 1446 1451 1456 1460 1465 1470 1475 1479 1483 1488 1492 1496 1499 1503 1506 1509 1512 1514 1517 1519 1521 1523 1524 1525 1526 1527 1527 1527 1527 1525 1524 1523 1523
1386 1391 1396 1401 1406 1411 1417 1423 1429 1435 1440 1444 1449 1454 1459 1464 1468 1473 1477 1481 1485 1489 1493 1497 1501 1504 1507 1510 1513 1515 1517 1519 1520 1521 1522 1523 1523 1524 1523 1522 1520 1519 1518
1378 1383 1389 1394 1399 1404 1410 1416 1422 1427 1433 1438 1442 1448 1453 1458 1463 1468 1472 1475 1479 1483 1488 1492 1495 1499 1503 1506 1508 1511 1513 1515 1516 1517 1518 1519 1519 1519 1519 1519 1517 1515 1513
1371 1376 1382 1387 1392 1397 1403 1408 1414 1421 1426 1431 1436 1442 1447 1452 1457 1463 1467 1471 1475 1479 1483 1487 1491 1494 1498 1501 1504 1506 1508 1510 1512 1513 1514 1514 1515 1515 1515 1515 1514 1513 1509
1367 1371 1376 1381 1386 1391 1397 1403 1408 1414 1419 1425 1430 1436 1441 1446 1452 1458 1462 1466 1470 1474 1478 1482 1486 1490 1493 1496 1499 1502 1504 1506 1508 1509 1510 1510 1510 1511 1511 1510 1510 1509 1507
1362 1366 1371 1376 1381 1386 1391 1397 1402 1408 1414 1419 1425 1430 1436 1441 1447 1452 1457 1462 1466 1470 1474 1477 1481 1485 1488 1492 1494 1497 1499 1501 1503 1504 1505 1506 1506 1506 1506 1506 1505 1504 1503
1358 1363 1367 1371 1376 1381 1386 1391 1396 1402 1408 1414 1419 1425 1431 1437 1442 1447 1452 1457 1462 1466 1469 1473 1477 1481 1484 1487 1490 1492 1495 1497 1498 1499 1500 1501 1501 1501 1501 1501 1500 1499 1498
1356 1360 1364 1367 1372 1376 1381 1386 1391 1397 1403 1409 1415 1420 1426 1432 1437 1442 1448 1453 1457 1462 1465 1469 1473 1476 1480 1483 1485 1488 1490 1492 1494 1495 1496 1496 1497 1497 1496 1496 1495 1494 1493
1353 1357 1360 1364 1368 1373 1377 1382 1387 1392 1398 1404 1410 1415 1421 1427 1433 1438 1444 1448 1453 1457 1461 1465 1469 1473 1476 1479 1482 1484 1486 1488 1490 1491 1492 1492 1492 1492 1492 1491 1491 1490 1488
1352 1355 1358 1362 1366 1370 1374 1379 1384 1388 1394 1400 1406 1411 1417 1423 1429 1434 1440 1445 1449 1453 1458 1462 1465 1469 1472 1475 1478 1480 1482 1484 1485 1487 1487 1488 1488 1488 1488 1487 1486 1485 1484
1350 1353 1356 1359 1363 1366 1371 1375 1380 1385 1391 1396 1402 1408 1414 1420 1425 1431 1436 1441 1446 1450 1454 1458 1461 1465 1468 1471 1474 1476 1478 1480 1481 1482 1483 1484 1484 1484 1484 1483 1482 1481 1480
1349 1352 1354 1357 1361 1364 1368 1373 1377 1383 1388 1393 1399 1405 1411 1416 1422 1427 1432 1437 1442 1447 1451 1455 1458 1461 1465 1468 1470 1473 1475 1476 1478 1479 1479 1480 1480 1480 1480 1479 1478 1477 1476
1348 1350 1353 1356 1359 1363 1367 1371 1376 1381 1386 1391 1396 1402 1407 1413 1418 1424 1429 1434 1439 1443 1448 1451 1455 1458 1462 1465 1467 1470 1472 1473 1474 1475 1476 1476 1476 1476 1476 1475 1474 1473 1472
1347 1349 1351 1354 1357 1361 1365 1369 1374 1378 1383 1388 1393 1398 1404 1409 1415 1420 1425 1431 1436 1440 1445 1449 1452 1456 1459 1462 1464 1467 1468 1470 1471 1472 1472 1473 1473 1473 1472 1471 1470 1469 1468
1346 1348 1350 1353 1356 1359 1363 1367 1371 1375 1380 1385 1390 1396 1401 1407 1412 1417 1423 1428 1433 1438 1442 1446 1450 1453 1456 1459 1462 1463 1465 1466 1468 1468 1469 1470 1469 1469 1468 1468 1467 1466 1464
1344 1346 1348 1351 1354 1357 1360 1364 1368 1373 1378 1383 1388 1394 1399 1405 1410 1415 1421 1426 1430 1435 1439 1443 1447 1451 1454 1456 1459 1460 1462 1463 1464 1465 1466 1466 1466 1466 1465 1464 1464 1463 1461
1342 1343 1346 1348 1352 1355 1358 1361 1365 1371 1376 1381 1386 1391 1396 1402 1408 1413 1418 1423 1428 1432 1437 1441 1444 1448 1451 1454 1456 1458 1459 1461 1462 1462 1463 1463 1463 1463 1462 1462 1461 1460 1458
1339 1341 1343 1345 1349 1352 1355 1358 1362 1367 1372 1378 1383 1388 1394 1399 1405 1410 1415 1420 1425 1429 1433 1437 1441 1445 1448 1451 1453 1455 1456 1458 1459 1460 1460 1460 1460 1460 1460 1459 1458 1457 1455
1336 1337 1339 1341 1344 1348 1351 1355 1359 1364 1369 1374 1379 1385 1390 1396 1402 1407 1412 1417 1422 1426 1430 1434 1438 1442 1445 1448 1450 1452 1454 1455 1456 1456 1457 1458 1458 1458 1457 1456 1455 1454 1453
1332 1333 1335 1337 1340 1344 1348 1351 1355 1359 1364 1370 1375 1381 1386 1392 1398 1404 1410 1415 1420 1424 1428 1432 1436 1439 1442 1445 1448 1450 1451 1452 1453 1453 1454 1455 1455 1455 1454 1454 1452 1451 1450
1328 1329 1331 1333 1336 1340 1343 1347 1351 1355 1360 1365 1371 1376 1382 1388 1394 1400 1406 1413 1419 1423 1428 1432 1435 1438 1441 1443 1445 1447 1449 1450 1450 1451 1451 1452 1452 1452 1452 1451 1450 1449 1448